Change the Weather History Date:

Saturday, March 16, 2013

  Actual Average Record
Temperature  
Mean Temperature 61 °F 61 °F  
Max Temperature 68 °F 70 °F 91 °F (1914)
Min Temperature 53 °F 51 °F 36 °F (1880)
Degree Days  
Heating Degree Days 4 5  
Month to date heating degree days 61 84  
Since 1 July heating degree days 836 859  
Cooling Degree Days 0 1  
Month to date cooling degree days 12 13  
Year to date cooling degree days 20 36  
Growing Degree Days 10 (Base 50)    
Moisture  
Dew Point 50 °F    
Average Humidity 73    
Maximum Humidity 93    
Minimum Humidity 52    
Precipitation  
Precipitation 0.00 in 0.08 in 2.53 in (1889)
Month to date precipitation 0.52 1.55  
Year to date precipitation 1.90 8.47  
Since 1 July precipitation 5.12  
Sea Level Pressure  
Sea Level Pressure 29.94 in    
Wind  
Wind Speed 1 mph (WSW)    
Max Wind Speed 10 mph    
Max Gust Speed 15 mph    
Visibility 4 miles    
Events      
T = Trace of Precipitation, MM = Missing Value Source: NWS Daily Summary

Daily Weather History Graph

Daily Weather History Graph

Search for Another Location

Airport or City:

Trip Planner

Search our weather history database for the weather conditions in past years. The results will help you decide how hot, cold, wet, or windy it might be!

Date:

Astronomy

Mar. 16, 2013 Rise Set
Actual Time 7:01 AM PDT 7:01 PM PDT
Civil Twilight 6:36 AM PDT 7:26 PM PDT
Nautical Twilight 6:07 AM PDT 7:56 PM PDT
Astronomical Twilight 5:38 AM PDT 8:25 PM PDT
Moon 9:48 AM PDT (3/16) No Moon Set
Length of Visible Light 12h 50m
Length of Day
12h 00m
Waxing Crescent, 24% of the Moon is Illuminated
Mar 16
Waxing Crescent
Mar 19
First Quarter
Mar 27
Full
Apr 2
Last Quarter
Apr 10
New

Hourly Weather History & Observations

Time (PDT) Temp. Dew Point Humidity Pressure Visibility Wind Dir Wind Speed Gust Speed Precip Events Conditions
12:47 AM 55.0 °F 51.1 °F 86% 29.96 in 3.0 mi Calm Calm - N/A   Overcast
1:47 AM 55.0 °F 51.1 °F 86% 29.96 in 3.0 mi Calm Calm - N/A   Overcast
2:19 AM 53.6 °F 51.8 °F 94% 29.97 in 3.0 mi Calm Calm - N/A   Overcast
2:47 AM 54.0 °F 51.1 °F 90% 29.96 in 2.5 mi Calm Calm - N/A   Overcast
2:52 AM 53.6 °F 51.8 °F 94% 29.97 in 3.0 mi Calm Calm - N/A   Overcast
3:18 AM 53.6 °F 51.8 °F 94% 29.96 in 2.5 mi Calm Calm - N/A   Overcast
3:28 AM 53.6 °F 51.8 °F 94% 29.95 in 3.0 mi Calm Calm - N/A   Overcast
3:40 AM 53.6 °F 51.8 °F 94% 29.95 in 2.5 mi Calm Calm - N/A   Overcast
3:47 AM 54.0 °F 51.1 °F 90% 29.95 in 2.5 mi Calm Calm - N/A   Overcast
4:04 AM 53.6 °F 51.8 °F 94% 29.94 in 3.0 mi Calm Calm - N/A   Overcast
4:13 AM 53.6 °F 51.8 °F 94% 29.94 in 2.5 mi East 3.5 mph - N/A   Overcast
4:47 AM 54.0 °F 51.1 °F 90% 29.94 in 2.5 mi East 3.5 mph - N/A   Overcast
5:21 AM 53.6 °F 51.8 °F 94% 29.94 in 3.0 mi Calm Calm - N/A   Overcast
5:47 AM 54.0 °F 50.0 °F 86% 29.95 in 3.0 mi Calm Calm - N/A   Overcast
6:47 AM 53.1 °F 50.0 °F 89% 29.96 in 3.0 mi Calm Calm - N/A   Overcast
7:40 AM 53.6 °F 50.0 °F 88% 29.96 in 2.5 mi Calm Calm - N/A   Overcast
7:47 AM 53.1 °F 50.0 °F 89% 29.96 in 2.5 mi Calm Calm - N/A   Overcast
7:52 AM 53.6 °F 50.0 °F 88% 29.96 in 3.0 mi SE 3.5 mph - N/A   Overcast
8:47 AM 54.0 °F 48.9 °F 83% 29.98 in 3.0 mi Calm Calm - N/A   Haze
9:17 AM 55.4 °F 48.2 °F 77% 29.98 in 4.0 mi Variable 3.5 mph - N/A   Haze
9:47 AM 55.9 °F 48.9 °F 77% 29.97 in 4.0 mi Calm Calm - N/A   Haze
10:31 AM 59.0 °F 48.2 °F 67% 29.98 in 5.0 mi Calm Calm - N/A   Haze
10:47 AM 60.1 °F 48.0 °F 64% 29.97 in 6.0 mi Calm Calm - N/A   Haze
11:47 AM 63.0 °F 46.9 °F 56% 29.96 in 6.0 mi Calm Calm - N/A   Haze
12:47 PM 66.9 °F 48.9 °F 52% 29.94 in 5.0 mi Variable 4.6 mph - N/A   Haze
1:47 PM 66.0 °F 50.0 °F 56% 29.92 in 5.0 mi WSW 3.5 mph - N/A   Haze
2:47 PM 63.0 °F 50.0 °F 63% 29.91 in 4.0 mi Calm Calm - N/A   Haze
3:47 PM 63.0 °F 50.0 °F 63% 29.90 in 5.0 mi West 6.9 mph - N/A   Haze
4:47 PM 60.1 °F 50.0 °F 69% 29.91 in 5.0 mi West 8.1 mph - N/A   Haze
5:37 PM 57.2 °F 50.0 °F 77% 29.90 in 5.0 mi Calm Calm - N/A   Haze
5:47 PM 57.0 °F 50.0 °F 77% 29.90 in 5.0 mi West 3.5 mph - N/A   Haze
6:17 PM 55.4 °F 50.0 °F 82% 29.90 in 5.0 mi WNW 3.5 mph - N/A   Haze
6:30 PM 55.4 °F 50.0 °F 82% 29.90 in 5.0 mi West 4.6 mph - N/A   Haze
6:47 PM 55.9 °F 50.0 °F 80% 29.91 in 5.0 mi Calm Calm - N/A   Haze
7:47 PM 55.0 °F 50.0 °F 83% 29.92 in 6.0 mi Calm Calm - N/A   Haze
8:27 PM 55.4 °F 50.0 °F 82% 29.92 in 6.0 mi Calm Calm - N/A   Haze
8:47 PM 55.0 °F 50.0 °F 83% 29.94 in 6.0 mi Calm Calm - N/A   Haze
9:47 PM 55.0 °F 50.0 °F 83% 29.95 in 5.0 mi Calm Calm - N/A   Haze
10:47 PM 55.9 °F 50.0 °F 80% 29.96 in 5.0 mi Calm Calm - N/A   Haze
11:34 PM 53.6 °F 50.0 °F 88% 29.95 in 5.0 mi Calm Calm - N/A   Mostly Cloudy
11:47 PM 54.0 °F 50.0 °F 86% 29.96 in 5.0 mi Calm Calm - N/A   Overcast